This demonstration page uses our WeatherBlox Daily Observations layout. Learn more.

Left ArrowRight Arrow

39.51506, -84.39828

Hourly Observations for March 8, 2020

Temp ( °F °C ) Dew Point ( °F °C ) Humidity (%) Winds ( mph kmh ) Pressure ( in mb ) Visibility ( mi km ) Precip ( " mm )
12:15 am 00:15 Clear 29 -1.9 24 -4.4 83 83 Calm 30.52 1034 10 16.0934 0 0
12:35 am 00:35 Clear 28 -2 25 -4 86 86 Calm 30.52 1034 10 16.0934 0 0
12:55 am 00:55 Clear 28 -2 24 -4.7 82 82 Calm 30.51 1033 10 16.0934 0 0
1:15 am 01:15 Clear 28 -2.2 24 -4.5 84 84 Calm 30.51 1033 10 16.0934 0 0
1:35 am 01:35 Clear 27 -2.6 24 -4.5 87 87 Calm 30.51 1033 10 16.0934 0 0
1:55 am 01:55 Clear 27 -2.7 24 -4.6 87 87 Calm 30.51 1033 10 16.0934 0 0
3:15 am 03:15 Clear 26 -3.4 23 -4.8 90 90 Calm 30.51 1033 10 16.0934 0 0
3:35 am 03:35 Clear 26 -3.3 24 -4.6 91 91 Calm 30.5 1033 10 16.0934 0 0
3:55 am 03:55 Clear 27 -2.9 24 -4.3 90 90 Calm 30.5 1033 10 16.0934 0 0
4:15 am 04:15 Clear 26 -3.6 23 -4.9 91 91 Calm 30.51 1033 10 16.0934 0 0
4:35 am 04:35 Clear 26 -3.3 23 -4.8 90 90 Calm 30.5 1033 10 16.0934 0 0
4:55 am 04:55 Clear 26 -3.2 24 -4.5 91 91 Calm 30.5 1033 10 16.0934 0 0
5:15 am 05:15 Clear 26 -3.1 24 -4.2 92 92 Calm 30.5 1033 10 16.0934 0 0
5:35 am 05:35 Clear 26 -3.6 24 -4.7 92 92 Calm 30.51 1033 10 16.0934 0 0
5:55 am 05:55 Clear 26 -3.1 24 -4.4 91 91 Calm 30.5 1033 10 16.0934 0 0
6:15 am 06:15 Clear 26 -3.6 24 -4.4 94 94 Calm 30.51 1033 10 16.0934 0 0
6:35 am 06:35 Clear 26 -3.4 24 -4.3 94 94 Calm 30.52 1033 10 16.0934 0 0
6:55 am 06:55 Clear 25 -3.7 24 -4.5 94 94 Calm 30.52 1033 10 16.0934 0 0
7:15 am 07:15 Clear 26 -3.6 23 -4.8 92 92 Calm 30.52 1033 10 16.0934 0 0
7:35 am 07:35 Clear 25 -3.7 24 -4.6 94 94 Calm 30.52 1033 10 16.0934 0 0
7:55 am 07:55 Clear 26 -3.6 24 -4.3 95 95 Calm 30.52 1033 10 16.0934 0 0
8:15 am 08:15 Sunny 24 -4.5 22 -5.4 94 94 Calm 30.53 1034 10 16.0934 0 0
8:35 am 08:35 Sunny 26 -3.1 25 -3.9 94 94 Calm 30.52 1034 10 16.0934 0 0
8:55 am 08:55 Sunny 29 -1.9 27 -2.7 94 94 Calm 30.52 1034 10 16.0934 0 0
9:15 am 09:15 Sunny 33 0.5 29 -1.7 85 85 Calm 30.51 1033 10 16.0934 0 0
9:35 am 09:35 Sunny 37 2.5 28 -2.1 72 72 NW 3 6 30.52 1033 10 16.0934 0 0
9:55 am 09:55 Sunny 39 3.7 27 -2.8 63 63 WSW 6 9 30.52 1033 10 16.0934 0 0
10:15 am 10:15 Sunny 41 4.8 28 -2.1 61 61 SSW 7 11 30.5 1033 10 16.0934 0 0
10:35 am 10:35 Sunny 43 6.1 28 -2.2 56 56 SW 9 15 30.5 1033 10 16.0934 0 0
10:55 am 10:55 Sunny 46 7.9 28 -2.2 49 49 SW 8 13 30.48 1032 10 16.0934 0 0
11:15 am 11:15 Sunny 49 9.2 26 -3.2 42 42 SSW 10 17 30.48 1032 10 16.0934 0 0
11:35 am 11:35 Sunny 50 9.8 26 -3.1 41 41 S 9 15 30.47 1032 10 16.0934 0 0
11:55 am 11:55 Sunny 51 10.3 27 -2.8 40 40 S 9 15 30.46 1031 10 16.0934 0 0
12:15 pm 12:15 Sunny 53 11.8 27 -2.6 37 37 S 9 15 30.44 1031 10 16.0934 0 0
12:35 pm 12:35 Sunny 56 13.3 27 -3 32 32 SSW 13 20 30.43 1031 10 16.0934 0 0
12:55 pm 12:55 Sunny 58 14.2 24 -4.3 28 28 S 13 20 30.42 1030 10 16.0934 0 0
1:15 pm 13:15 Sunny 58 14.7 24 -4.4 27 27 S 15 24 30.41 1030 10 16.0934 0 0
1:35 pm 13:35 Sunny 59 15.1 23 -5 25 25 SW 13 20 30.41 1030 10 16.0934 0 0
1:55 pm 13:55 Sunny 60 15.7 24 -4.5 25 25 SSW 16 26 30.4 1030 10 16.0934 0 0
2:15 pm 14:15 Sunny 60 15.8 24 -4.5 25 25 SSW 12 19 30.39 1029 10 16.0934 0 0
2:35 pm 14:35 Sunny 62 16.4 23 -4.9 23 23 SSW 16 26 30.38 1029 10 16.0934 0 0
2:55 pm 14:55 Sunny 62 16.6 24 -4.7 23 23 SSW 15 24 30.37 1029 10 16.0934 0 0
3:15 pm 15:15 Sunny 63 17 24 -4.3 23 23 SSW 13 20 30.35 1028 10 16.0934 0 0
3:35 pm 15:35 Sunny 64 17.5 25 -3.9 23 23 SW 13 20 30.35 1028 10 16.0934 0 0
3:55 pm 15:55 Sunny 64 17.5 25 -3.9 23 23 SSW 14 22 30.33 1027 10 16.0934 0 0
4:15 pm 16:15 Sunny 65 18.2 24 -4.6 21 21 SSW 15 24 30.33 1027 10 16.0934 0 0
4:35 pm 16:35 Sunny 64 17.7 23 -4.9 21 21 SSW 15 24 30.32 1027 10 16.0934 0 0
4:55 pm 16:55 Sunny 65 18.5 22 -5.3 19 19 S 16 26 30.31 1026 10 16.0934 0 0
5:15 pm 17:15 Sunny 66 18.9 23 -5 19 19 SSW 17 28 30.31 1026 10 16.0934 0 0
5:35 pm 17:35 Sunny 65 18.4 23 -5 20 20 SSW 17 28 30.3 1026 10 16.0934 0 0
5:55 pm 17:55 Sunny 64 17.8 24 -4.3 22 22 SSW 13 20 30.3 1026 10 16.0934 0 0
6:15 pm 18:15 Sunny 64 17.5 25 -4.1 23 23 SSW 13 20 30.3 1026 10 16.0934 0 0
6:35 pm 18:35 Sunny 65 18.1 24 -4.2 22 22 SSW 15 24 30.29 1026 10 16.0934 0 0
6:55 pm 18:55 Sunny 63 17.3 25 -3.8 24 24 SSW 13 20 30.29 1026 10 16.0934 0 0
7:15 pm 19:15 Sunny 62 16.4 24 -4.6 23 23 SSW 13 20 30.29 1026 10 16.0934 0 0
7:35 pm 19:35 Sunny 59 15.1 24 -4.5 26 26 SSW 10 17 30.29 1026 10 16.0934 0 0
7:55 pm 19:55 Clear 57 13.8 24 -4.2 29 29 SSW 9 15 30.3 1026 10 16.0934 0 0
8:15 pm 20:15 Clear 57 13.7 25 -4 29 29 SSW 12 19 30.3 1026 10 16.0934 0 0
8:35 pm 20:35 Clear 55 12.8 24 -4.2 31 31 SSW 9 15 30.3 1026 10 16.0934 0 0
8:55 pm 20:55 Clear 52 11.3 26 -3.6 35 35 SSW 6 9 30.31 1026 10 16.0934 0 0
9:15 pm 21:15 Clear 54 12 25 -3.7 33 33 S 6 9 30.31 1027 10 16.0934 0 0
9:35 pm 21:35 Clear 51 10.5 25 -4.1 36 36 S 6 9 30.32 1027 10 16.0934 0 0
9:55 pm 21:55 Clear 48 8.9 27 -2.7 44 44 S 5 7 30.31 1026 10 16.0934 0 0
10:15 pm 22:15 Clear 51 10.3 27 -2.6 41 41 SW 6 9 30.32 1027 10 16.0934 0 0
10:35 pm 22:35 Clear 50 9.8 27 -2.8 41 41 SSW 6 9 30.32 1027 10 16.0934 0 0
10:55 pm 22:55 Clear 49 9.5 27 -2.6 43 43 S 5 7 30.32 1027 10 16.0934 0 0
11:15 pm 23:15 Clear 48 8.8 27 -2.6 45 45 SW 7 11 30.32 1027 10 16.0934 0 0
11:35 pm 23:35 Clear 48 8.8 28 -2.5 45 45 SSW 7 11 30.32 1027 10 16.0934 0 0
11:55 pm 23:55 Clear 48 9 27 -2.8 44 44 SSW 6 9 30.33 1027 10 16.0934 0 0

Powered by AerisWeather